Waskish, MN

9:26 PM CDT on April 20, 2018 (GMT -0500)
Waskish Municipal

Weather History for KVWU - October, 2013

Change the Weather History Date:

Wednesday, October 23, 2013

  Actual Average (KBDE) Record (KBDE)
Temperature  
Mean Temperature 30 °F -  
Max Temperature 33 °F 52 °F 80 °F (1963)
Min Temperature 28 °F 30 °F 8 °F (1936)
Degree Days  
Heating Degree Days 34    
Moisture  
Dew Point 25 °F    
Average Humidity 77    
Maximum Humidity 93    
Minimum Humidity 65    
Precipitation  
Precipitation 0.00 in - - ()
Sea Level Pressure  
Sea Level Pressure 30.02 in    
Wind  
Wind Speed 10 mph (WNW)    
Max Wind Speed 14 mph    
Max Gust Speed 18 mph    
Visibility 10 miles    
Events      
Averages and records for this station are not official NWS values.
T = Trace of Precipitation, MM = Missing Value Source: NWS Daily Summary

Daily Weather History Graph

Daily Weather History Graph

Search for Another Location

Airport or City:

Astronomy

Oct. 23, 2013 Rise Set
Actual Time 7:49 AM CDT 6:13 PM CDT
Civil Twilight 7:18 AM CDT 6:45 PM CDT
Nautical Twilight 6:41 AM CDT 7:22 PM CDT
Astronomical Twilight 6:05 AM CDT 7:58 PM CDT
Moon 9:34 PM CDT (10/23) 12:19 PM CDT (10/23)
Length of Visible Light 11h 27m
Length of Day
10h 23m
Waning Gibbous, 79% of the Moon is Illuminated
Oct 23
Waning Gibbous
Oct 26
Last Quarter
Nov 3
New
Nov 9
First Quarter
Nov 17
Full

Hourly Weather History & Observations

Time (CDT) Temp. Windchill Dew Point Humidity Pressure Visibility Wind Dir Wind Speed Gust Speed Precip Events Conditions
12:04 AM 32.0 °F 25.6 °F 26.6 °F 80% 29.98 in 10.0 mi WNW 6.9 mph - N/A   Overcast
12:24 AM 32.0 °F 24.2 °F 26.6 °F 80% 29.98 in 10.0 mi WNW 9.2 mph - N/A   Overcast
12:43 AM 30.2 °F 22.6 °F 26.6 °F 86% 29.98 in 10.0 mi WNW 8.1 mph - N/A   Overcast
1:04 AM 30.2 °F 20.8 °F 26.6 °F 86% 29.98 in 10.0 mi WNW 11.5 mph - N/A   Overcast
1:23 AM 30.2 °F 22.6 °F 26.6 °F 86% 29.98 in 10.0 mi WNW 8.1 mph - N/A   Mostly Cloudy
1:43 AM 30.2 °F 21.3 °F 24.8 °F 80% 29.98 in 10.0 mi WNW 10.4 mph 16.1 mph N/A   Scattered Clouds
2:04 AM 30.2 °F 22.6 °F 26.6 °F 86% 29.98 in 10.0 mi WNW 8.1 mph - N/A   Scattered Clouds
2:23 AM 30.2 °F 20.8 °F 24.8 °F 80% 29.98 in 10.0 mi WNW 11.5 mph 16.1 mph N/A   Overcast
2:43 AM 30.2 °F 21.3 °F 24.8 °F 80% 29.97 in 10.0 mi WNW 10.4 mph - N/A   Overcast
3:04 AM 30.2 °F 21.9 °F 26.6 °F 86% 29.97 in 10.0 mi WNW 9.2 mph - N/A   Overcast
3:23 AM 30.2 °F 20.8 °F 26.6 °F 86% 29.97 in 10.0 mi WNW 11.5 mph - N/A   Overcast
3:43 AM 30.2 °F 20.2 °F 26.6 °F 86% 29.97 in 10.0 mi WNW 12.7 mph - N/A   Overcast
4:03 AM 30.2 °F 21.3 °F 26.6 °F 86% 29.96 in 10.0 mi WNW 10.4 mph - N/A   Overcast
4:23 AM 30.2 °F 20.2 °F 26.6 °F 86% 29.96 in 10.0 mi WNW 12.7 mph 17.3 mph N/A   Overcast
4:43 AM 30.2 °F 20.2 °F 26.6 °F 86% - 10.0 mi WNW 12.7 mph 17.3 mph N/A   Overcast
5:04 AM 30.2 °F - 26.6 °F 86% 29.97 in 10.0 mi Calm Calm - N/A   Overcast
5:23 AM 30.2 °F 20.8 °F 26.6 °F 86% 29.97 in 10.0 mi WNW 11.5 mph 18.4 mph N/A   Overcast
5:43 AM 28.4 °F 19.1 °F 26.6 °F 93% 29.97 in 10.0 mi WNW 10.4 mph 17.3 mph N/A   Overcast
6:04 AM 30.2 °F 21.3 °F 24.8 °F 80% 29.97 in 10.0 mi WNW 10.4 mph - N/A   Overcast
6:23 AM 28.4 °F 19.1 °F 24.8 °F 86% 29.97 in 10.0 mi WNW 10.4 mph - N/A   Overcast
6:43 AM 28.4 °F 19.1 °F 24.8 °F 86% 29.98 in 10.0 mi WNW 10.4 mph 16.1 mph N/A   Overcast
7:04 AM 28.4 °F 19.1 °F 24.8 °F 86% 29.98 in 10.0 mi WNW 10.4 mph 18.4 mph N/A   Overcast
7:23 AM 28.4 °F 18.5 °F 24.8 °F 86% 29.98 in 10.0 mi NW 11.5 mph 16.1 mph N/A   Overcast
7:43 AM 28.4 °F 18.5 °F 24.8 °F 86% 29.99 in 10.0 mi NW 11.5 mph 17.3 mph N/A   Overcast
8:04 AM 28.4 °F 18.5 °F 23.0 °F 80% 30.00 in 10.0 mi WNW 11.5 mph 18.4 mph N/A   Overcast
8:23 AM 28.4 °F 20.4 °F 23.0 °F 80% 30.00 in 10.0 mi NW 8.1 mph - N/A   Overcast
8:43 AM 28.4 °F 19.7 °F 24.8 °F 86% 30.00 in 10.0 mi NW 9.2 mph - N/A   Overcast
9:04 AM 30.2 °F 21.3 °F 24.8 °F 80% 30.00 in 10.0 mi WNW 10.4 mph - N/A   Overcast
9:23 AM 30.2 °F 20.2 °F 24.8 °F 80% 30.01 in 10.0 mi WNW 12.7 mph - N/A   Overcast
9:43 AM 30.2 °F 21.3 °F 24.8 °F 80% 30.01 in 10.0 mi NW 10.4 mph - N/A   Overcast
10:04 AM 30.2 °F 20.8 °F 24.8 °F 80% 30.01 in 10.0 mi WNW 11.5 mph - N/A   Overcast
10:23 AM 30.2 °F 21.3 °F 24.8 °F 80% 30.02 in 10.0 mi WNW 10.4 mph - N/A   Overcast
10:43 AM 30.2 °F 20.2 °F 24.8 °F 80% 30.02 in 10.0 mi WNW 12.7 mph - N/A   Overcast
11:04 AM 30.2 °F 20.8 °F 26.6 °F 86% 30.02 in 10.0 mi WNW 11.5 mph - N/A   Overcast
11:23 AM 32.0 °F 24.2 °F 26.6 °F 80% 30.02 in 10.0 mi West 9.2 mph - N/A   Overcast
11:43 AM 32.0 °F 23.0 °F 24.8 °F 75% 30.02 in 10.0 mi WNW 11.5 mph - N/A   Overcast
12:04 PM 32.0 °F 24.2 °F 24.8 °F 75% 30.03 in 10.0 mi NW 9.2 mph - N/A   Overcast
12:23 PM 33.8 °F 26.4 °F 24.8 °F 70% 30.02 in 10.0 mi WNW 9.2 mph - N/A   Overcast
12:43 PM 33.8 °F 25.8 °F 24.8 °F 70% 30.02 in 10.0 mi West 10.4 mph - N/A   Overcast
1:04 PM 33.8 °F 26.4 °F 24.8 °F 70% 30.02 in 10.0 mi West 9.2 mph - N/A   Overcast
1:23 PM 33.8 °F 25.3 °F 23.0 °F 65% 30.02 in 10.0 mi WNW 11.5 mph - N/A   Overcast
1:43 PM 33.8 °F 25.8 °F 23.0 °F 65% 30.02 in 10.0 mi WNW 10.4 mph - N/A   Overcast
2:04 PM 33.8 °F 25.3 °F 23.0 °F 65% 30.02 in 10.0 mi WNW 11.5 mph - N/A   Overcast
2:23 PM 33.8 °F 26.4 °F 23.0 °F 65% 30.02 in 10.0 mi WNW 9.2 mph - N/A   Overcast
2:43 PM 33.8 °F 27.0 °F 23.0 °F 65% 30.02 in 10.0 mi NW 8.1 mph - N/A   Overcast
3:04 PM 33.8 °F 27.0 °F 23.0 °F 65% 30.03 in 10.0 mi West 8.1 mph - N/A   Overcast
3:23 PM 33.8 °F 25.3 °F 23.0 °F 65% 30.03 in 10.0 mi West 11.5 mph - N/A   Overcast
3:44 PM 33.8 °F 25.8 °F 23.0 °F 65% 30.03 in 10.0 mi West 10.4 mph - N/A   Overcast
4:03 PM 33.8 °F 25.8 °F 24.8 °F 70% 30.03 in 10.0 mi WNW 10.4 mph - N/A   Overcast
4:23 PM 33.8 °F 26.4 °F 23.0 °F 65% 30.04 in 10.0 mi West 9.2 mph - N/A   Overcast
4:44 PM 33.8 °F 26.4 °F 23.0 °F 65% 30.04 in 10.0 mi WNW 9.2 mph 17.3 mph N/A   Overcast
5:03 PM 33.8 °F 26.4 °F 24.8 °F 70% 30.04 in 10.0 mi WNW 9.2 mph 17.3 mph N/A   Overcast
5:23 PM 33.8 °F 26.4 °F 24.8 °F 70% 30.04 in 10.0 mi WNW 9.2 mph - N/A   Overcast
5:44 PM 33.8 °F 25.8 °F 24.8 °F 70% 30.05 in 10.0 mi West 10.4 mph 16.1 mph N/A   Overcast
6:03 PM 33.8 °F 26.4 °F 24.8 °F 70% 30.05 in 10.0 mi West 9.2 mph 17.3 mph N/A   Overcast
6:23 PM 33.8 °F 26.4 °F 24.8 °F 70% 30.05 in 10.0 mi WNW 9.2 mph 16.1 mph N/A   Overcast
6:44 PM 33.8 °F 27.0 °F 24.8 °F 70% 30.05 in 10.0 mi WNW 8.1 mph - N/A   Overcast
7:03 PM 33.8 °F 25.8 °F 24.8 °F 70% 30.06 in 10.0 mi WNW 10.4 mph - N/A   Overcast
7:23 PM 33.8 °F 25.8 °F 24.8 °F 70% 30.06 in 10.0 mi WNW 10.4 mph - N/A   Overcast
7:44 PM 33.8 °F 25.3 °F 24.8 °F 70% 30.06 in 10.0 mi WNW 11.5 mph 17.3 mph N/A   Overcast
8:03 PM 33.8 °F 24.3 °F 24.8 °F 70% 30.06 in 10.0 mi WNW 13.8 mph - N/A   Overcast
8:23 PM 33.8 °F 25.8 °F 26.6 °F 75% 30.06 in 10.0 mi WNW 10.4 mph - N/A   Overcast
8:44 PM 33.8 °F 27.0 °F 26.6 °F 75% 30.07 in 10.0 mi WNW 8.1 mph 16.1 mph N/A   Overcast
9:03 PM 33.8 °F 26.4 °F 26.6 °F 75% 30.07 in 10.0 mi WNW 9.2 mph - N/A   Overcast
9:23 PM 33.8 °F 25.8 °F 26.6 °F 75% 30.07 in 10.0 mi WNW 10.4 mph - N/A   Overcast
9:44 PM 33.8 °F 25.8 °F 26.6 °F 75% 30.08 in 10.0 mi WNW 10.4 mph - N/A   Overcast
10:03 PM 33.8 °F 25.3 °F 26.6 °F 75% 30.08 in 10.0 mi WNW 11.5 mph 16.1 mph N/A   Overcast
10:23 PM 33.8 °F 26.4 °F 26.6 °F 75% 30.08 in 10.0 mi WNW 9.2 mph - N/A   Overcast
10:44 PM 33.8 °F 26.4 °F 26.6 °F 75% 30.08 in 10.0 mi WNW 9.2 mph 16.1 mph N/A   Overcast
11:03 PM 33.8 °F 25.8 °F 28.4 °F 81% 30.08 in 10.0 mi WNW 10.4 mph - N/A   Overcast
11:23 PM 33.8 °F 25.8 °F 28.4 °F 81% 30.08 in 10.0 mi WNW 10.4 mph - N/A   Overcast
11:44 PM 33.8 °F 27.7 °F 28.4 °F 81% 30.08 in 10.0 mi WNW 6.9 mph - N/A   Overcast